Regional Weather Roundup
Issued by NWS San Angelo, TX

Home | Current Version | Previous Version | Text Only | Print | Product List | Glossary On
Versions: 1 2 3 4 5 6 7 8 9 10 11 12 13 14 15 16 17 18 19 20 21 22 23 24 25 26 27 28 29 30 31 32 33 34 35 36 37 38 39 40 41 42 43 44 45 46 47 48 49 50
000
ASUS44 KSJT 100202
RWRSJT
WEST CENTRAL TEXAS REGIONAL WEATHER ROUNDUP
NATIONAL WEATHER SERVICE SAN ANGELO TX
800 PM CST FRI DEC 09 2016

NOTE: "FAIR" INDICATES FEW OR NO CLOUDS BELOW 12,000 FEET WITH NO
SIGNIFICANT WEATHER AND/OR OBSTRUCTIONS TO VISIBILITY.

TXZ049-054-064>066-071>073-076>078-098-099-113-114-127-128-139-140-
154-155-168>170-100300
...LOCATIONS ACROSS WEST CENTRAL TEXAS...

CITY           SKY/WX    TMP DP  RH WIND       PRES   REMARKS
SAN ANGELO     CLEAR     39  28  64 SE7       30.38R WCI  34
ABILENE        CLEAR     33  24  69 SE9       30.39F WCI  25
DYESS AFB      CLEAR     35  23  59 SE9       30.36F WCI  28
JUNCTION       CLOUDY    43  21  41 SE9       30.42R WCI  38
SWEETWATER     CLEAR     35  27  72 SE8       30.36F WCI  29
BROWNWOOD      NOT AVBL
COLEMAN        CLOUDY    40  25  55 S10       30.43R WCI  33
SONORA         CLEAR     39  25  56 S5        30.44R WCI  36
OZONA          FAIR      34  28  80 S6        30.40S WCI  29
BRADY          NOT AVBL
$$

TEXAS PANHANDLE/OKLAHOMA PANHANDLE

CITY           SKY/WX    TMP DP  RH WIND       PRES   REMARKS
AMARILLO       CLOUDY    32  29  88 S14       30.22S WCI  22
BORGER         CLOUDY    35  28  75 SE9       30.23S WCI  28
CANADIAN       CLOUDY    30  19  63 S12G18    30.31F WCI  20
DALHART        CLOUDY    36  27  69 SE6       30.18  WCI  31
DUMAS          CLOUDY    33  26  78 SE14      30.17F WCI  23
GUYMON         NOT AVBL
HEREFORD       PTCLDY    35  31  84 S12G17    30.23R WCI  27
PAMPA          CLOUDY    30  24  76 SE18      30.25S WCI  18
PERRYTON       CLOUDY    30  23  74 SE13      30.25S WCI  20
$$

SOUTHERN PANHANDLE/SOUTH PLAINS/ROLLING PLAINS

CITY           SKY/WX    TMP DP  RH WIND       PRES   REMARKS
LUBBOCK        CLOUDY    33  27  78 S12       30.27R WCI  24
SNYDER         CLEAR     32  27  83 E8        30.33F WCI  25
CHILDRESS      CLOUDY    32  22  66 SE10      30.35F WCI  24
SEMINOLE       CLOUDY    34  31  90 CALM      30.28S
$$

PERMIAN BASIN

CITY           SKY/WX    TMP DP  RH WIND       PRES   REMARKS
MIDLAND        CLEAR     38  31  76 S9        30.30R WCI  31
ODESSA         CLEAR     40  31  70 S10       30.29S WCI  33
WINK           CLEAR     37  34  89 SE7       30.27S WCI  32
$$

FAR WEST/SOUTHWEST MOUNTAINS/TRANS PECOS

CITY           SKY/WX    TMP DP  RH WIND       PRES   REMARKS
ALPINE         CLEAR     40  35  80 SW13      30.36S WCI  33
DRYDEN           N/A     37  32  82 SE6       30.35F WCI  32
EL PASO        PTCLDY    43  31  62 N5        30.29S
FORT STOCKTON  CLEAR     41  35  79 CALM      30.28S
GUADALUPE PASS NOT AVBL
MARFA          CLOUDY    32  30  92 SE3       30.35R
PECOS          CLEAR     38  35  89 SE7       30.28F WCI  33
$$

DALLAS/FORT WORTH METROPLEX

CITY           SKY/WX    TMP DP  RH WIND       PRES   REMARKS
DFW AIRPORT    PTCLDY    33  19  56 SE6       30.50S WCI  28
FTW MEACHAM    CLEAR     35  17  47 E7        30.49S WCI  29
DAL-EXECUTIVE  CLEAR     33  21  61 SE5       30.50S WCI  29
GRAND PRAIRIE  CLEAR     35  20  55 CALM      30.53S
ADDISON        CLEAR     36  19  51 E6        30.52S WCI  31
MESQUITE       CLEAR     32  19  59 CALM      30.53S
LANCASTER      CLEAR     33  20  59 CALM      30.53S
$$

NORTH CENTRAL TEXAS

CITY           SKY/WX    TMP DP  RH WIND       PRES   REMARKS
SHRMAN/DENISON CLOUDY    37  20  51 SE7       30.52R WCI  31
GAINESVILLE    CLOUDY    35  19  51 SE7       30.52S WCI  29
BRIDGEPORT     MOCLDY    36  21  54 SE3       30.49F
DENTON         MOCLDY    35  18  49 SE6       30.50F WCI  30
WAXAHACHIE     CLEAR     32  22  66 CALM      30.52S
GRANBURY       CLEAR     38  22  53 SE6       30.50S WCI  33
$$

WESTERN NORTH TEXAS

CITY           SKY/WX    TMP DP  RH WIND       PRES   REMARKS
WICHITA FALLS  CLOUDY    36  18  48 SE8       30.45R WCI  30
VERNON         CLOUDY    37  17  42 SE7       30.43S WCI  32
BRECKENRIDGE   CLEAR     35  20  54 SE8       30.43S WCI  29
COMANCHE       CLEAR     34  24  66 CALM      30.45S
$$

CENTRAL AND SOUTH CENTRAL TEXAS

CITY           SKY/WX    TMP DP  RH WIND       PRES   REMARKS
AUSTIN/BERGSTM CLOUDY    44  24  45 NE6       30.51R
WACO           CLOUDY    38  25  59 SE6       30.50S WCI  33
HILLSBORO      CLEAR     36  24  61 E8        30.51R WCI  30
TEMPLE         CLOUDY    41  25  53 SE3       30.51S
KILLEEN-GRAY   CLOUDY    40  22  49 SE8       30.47S WCI  34
FORT HOOD      CLOUDY    41  22  47 SE5       30.46S WCI  38
GEORGETOWN     CLOUDY    43  21  42 SE3       30.50S
LAGO VISTA     CLOUDY    41  26  55 E3        30.48S
SAN MARCOS     MOCLDY    39  32  75 NE3       30.52R
NEW BRAUNFELS  CLOUDY    39  26  59 CALM      30.49S
RANDOLPH AFB   CLOUDY    40  26  56 NE3       30.50S
SAN ANTONIO    MOCLDY    41  25  53 E3        30.50S
STINSON        CLOUDY    44  23  43 NE3       30.49F
PLEASANTON     NOT AVBL
LA GRANGE      CLOUDY    45  28  51 CALM      30.50S
GIDDINGS       CLOUDY    44  23  43 NE3       30.55S
$$

EAST TEXAS

CITY           SKY/WX    TMP DP  RH WIND       PRES   REMARKS
PARIS          CLOUDY    37  21  52 SE5       30.54S WCI  34
CLARKSVILLE    NOT AVBL
TYLER          CLEAR     33  27  78 CALM      30.53R
LONGVIEW       CLOUDY    37  30  75 CALM      30.54R
PALESTINE      CLEAR     35  26  71 NE3       30.53S
NACOGDOCHES    CLEAR     32  27  80 CALM      30.51F
$$

TEXAS HILL COUNTRY AND EDWARDS PLATEAU

CITY           SKY/WX    TMP DP  RH WIND       PRES   REMARKS
LLANO          CLOUDY   N/A N/A N/A SE5       30.49F
HORSESHOE BAY  CLOUDY    42  26  52 S3        30.48F
KERRVILLE      CLOUDY    36  27  70 CALM      30.46S
FREDERICKSBRG  CLOUDY    39  21  48 SE3       30.46R
ROCKSPRINGS    MOCLDY    37  28  70 S8        30.43R WCI  31
HONDO          CLOUDY    44  26  49 E5        30.48S
UVALDE         CLOUDY    42  32  67 CALM      30.49R
DEL RIO        MOCLDY    40  32  73 SE7       30.45R WCI  35
$$

SOUTHEAST TEXAS

CITY           SKY/WX    TMP DP  RH WIND       PRES   REMARKS
COLLEGE STN    CLOUDY    44  22  41 E6        30.53R
CALDWELL       NOT AVBL
CROCKETT       NOT AVBL
BRENHAM        CLOUDY    45  27  48 CALM      30.53S
HUNTSVILLE     CLOUDY    41  29  62 CALM      30.52S
CONROE         CLOUDY    43  30  60 N3        30.53R
HOUSTON BUSH   CLOUDY    46  29  51 NE8       30.52R
HOUSTON HOBBY  MOCLDY    49  27  42 NE9       30.50S
PERLAND        CLOUDY    49  29  46 NE3       30.52R
WHARTON        PTCLDY    41  32  70 N3        30.51S
$$

THE UPPER TEXAS COAST

CITY           SKY/WX    TMP DP  RH WIND       PRES   REMARKS
ORANGE         CLOUDY    43  29  58 CALM      30.53S
PORT ARTHUR    CLOUDY    44  29  55 N7        30.51S
GALVESTON      CLEAR     49  31  49 N13       30.51S
ANGLETON       MOCLDY    42  34  73 N3        30.50S
BAY CITY       PTCLDY    45  34  66 CALM      30.51R
$$

TEXAS COASTAL BEND, RIO GRANDE PLAINS DEEP SOUTH TEXAS

CITY           SKY/WX    TMP DP  RH WIND       PRES   REMARKS
VICTORIA       MOCLDY    42  35  76 NE7       30.51R WCI  38
BEEVILLE       CLOUDY    47  34  60 CALM      30.49S
ROCKPORT       CLOUDY    47  31  53 NE6       30.50R
PORT ARANSAS   CLOUDY    47  34  59 N9        30.49S
PORT LAVACA    CLOUDY    45  37  76 N5        30.50S
CORPUS CHRISTI CLOUDY    48  31  51 NE7       30.49S
KINGSVILLE NAS NOT AVBL
COTULLA        CLOUDY    49  27  42 SE3       30.49S
LAREDO         CLOUDY    46  28  49 E5        30.49S
BROWNSVILLE    CLOUDY    45  35  68 NW14G20   30.46S WCI  38
PORT ISABEL    CLOUDY    45  35  68 NW15      30.45S WCI  38
HEBBRONVILLE   CLOUDY    44  26  50 E3        30.48F
MCALLEN        CLOUDY    48  30  49 NW9       30.50S
WESLACO        CLOUDY    44  30  56 N8        30.48F WCI  40
FALFURRIAS     CLOUDY    46  29  51 CALM      30.49F
EDINBURG       CLOUDY    47  30  52 N6        30.50F
$$




USA.gov is the U.S. government's official web portal to all federal, state and local government web resources and services.